Westerly, RI

8:00 AM EDT on September 25, 2017 (GMT -0400)
Westerly State

Weather History for KWST - April, 2014

Change the Weather History Date:

Thursday, April 3, 2014

  Actual Average (KGON) Record (KGON)
Temperature  
Mean Temperature 46 °F -  
Max Temperature 61 °F 53 °F 77 °F (1967)
Min Temperature 30 °F 34 °F 23 °F (1965)
Degree Days  
Heating Degree Days 20    
Moisture  
Dew Point 26 °F    
Average Humidity 54    
Maximum Humidity 92    
Minimum Humidity 16    
Precipitation  
Precipitation 0.00 in - - ()
Sea Level Pressure  
Sea Level Pressure 30.08 in    
Wind  
Wind Speed 5 mph (NNW)    
Max Wind Speed 13 mph    
Max Gust Speed 17 mph    
Visibility 10 miles    
Events      
Averages and records for this station are not official NWS values.
T = Trace of Precipitation, MM = Missing Value Source: NWS Daily Summary

Daily Weather History Graph

Daily Weather History Graph

Search for Another Location

Airport or City:

Trip Planner

Search our weather history database for the weather conditions in past years. The results will help you decide how hot, cold, wet, or windy it might be!

Date:

Astronomy

Apr. 03, 2014 Rise Set
Actual Time 6:27 AM EDT 7:14 PM EDT
Civil Twilight 5:59 AM EDT 7:42 PM EDT
Nautical Twilight 5:25 AM EDT 8:15 PM EDT
Astronomical Twilight 4:51 AM EDT 8:50 PM EDT
Moon 8:51 AM EDT (4/3) 11:33 PM EDT (4/3)
Length of Visible Light 13h 43m
Length of Day
12h 47m
Waxing Crescent, 17% of the Moon is Illuminated
Apr 3
Waxing Crescent
Apr 7
First Quarter
Apr 15
Full
Apr 22
Last Quarter
Apr 29
New

Hourly Weather History & Observations

Time (EDT) Temp. Windchill Dew Point Humidity Pressure Visibility Wind Dir Wind Speed Gust Speed Precip Events Conditions
12:53 AM 33.1 °F - 30.0 °F 89% 30.10 in 10.0 mi Calm Calm - N/A   Clear
1:53 AM 30.9 °F - 28.9 °F 92% 30.09 in 10.0 mi Calm Calm - N/A   Clear
2:53 AM 32.0 °F - 28.9 °F 88% 30.09 in 10.0 mi Calm Calm - N/A   Clear
3:53 AM 32.0 °F - 30.0 °F 92% 30.08 in 9.0 mi Calm Calm - N/A   Clear
4:53 AM 41.0 °F 36.4 °F 32.0 °F 70% 30.07 in 10.0 mi NNW 6.9 mph - N/A   Clear
5:53 AM 39.9 °F 34.5 °F 27.0 °F 60% 30.08 in 10.0 mi NNW 8.1 mph - N/A   Clear
6:53 AM 39.9 °F 35.1 °F 27.0 °F 60% 30.09 in 10.0 mi North 6.9 mph - N/A   Clear
7:53 AM 43.0 °F 37.2 °F 27.0 °F 53% 30.10 in 10.0 mi NNW 10.4 mph - N/A   Clear
8:53 AM 46.9 °F - 26.1 °F 44% 30.11 in 10.0 mi NNW 11.5 mph - N/A   Clear
9:53 AM 51.1 °F - 25.0 °F 36% 30.10 in 10.0 mi NW 8.1 mph - N/A   Clear
10:53 AM 54.0 °F - 19.0 °F 25% 30.10 in 10.0 mi NNW 9.2 mph - N/A   Clear
11:53 AM 57.0 °F - 15.1 °F 19% 30.07 in 10.0 mi NNW 10.4 mph - N/A   Clear
12:53 PM 59.0 °F - 12.0 °F 16% 30.06 in 10.0 mi Variable 6.9 mph - N/A   Clear
1:53 PM 61.0 °F - 15.1 °F 17% 30.05 in 10.0 mi NW 8.1 mph - N/A   Clear
2:53 PM 61.0 °F - 19.0 °F 20% 30.04 in 10.0 mi NNW 10.4 mph - N/A   Clear
3:53 PM 53.1 °F - 23.0 °F 31% 30.04 in 10.0 mi SW 9.2 mph - N/A   Clear
4:53 PM 54.0 °F - 21.9 °F 29% 30.04 in 10.0 mi WSW 10.4 mph - N/A   Clear
5:53 PM 51.1 °F - 23.0 °F 33% 30.05 in 10.0 mi SSE 12.7 mph 17.3 mph N/A   Clear
6:53 PM 43.0 °F 36.8 °F 30.9 °F 62% 30.07 in 10.0 mi ESE 11.5 mph - N/A   Clear
7:53 PM 42.1 °F 37.1 °F 32.0 °F 67% 30.09 in 10.0 mi East 8.1 mph - N/A   Clear
8:53 PM 39.9 °F 35.8 °F 34.0 °F 79% 30.09 in 10.0 mi East 5.8 mph - N/A   Clear
9:53 PM 39.0 °F 35.7 °F 35.1 °F 86% 30.10 in 10.0 mi East 4.6 mph - N/A   Clear
11:53 PM 39.0 °F 36.8 °F 34.0 °F 82% 30.14 in 10.0 mi NNE 3.5 mph - N/A   Clear